FENGYUN 1C DEB, 30352

Orbit data source: Space-Track

FENGYUN 1C DEB, 30352 is space debris in SSO originally from a launch on Mon, 10 May 1999 UTC launched from the Taiyaun Space Center, China (TSC). Fengyun 1C debris stems from the Chinese weather satellite Fengyun-1C, which was intentionally destroyed by a Chinese anti-satellite missile in 2007. This event dramatically increased the amount of space debris, with thousands of trackable fragments posing hazards to satellites and human spaceflight. The Fengyun 1C debris cloud has become a focal point in discussions about space sustainability and the need for international regulations to prevent the creation of new debris.

Loading next visibility...
Identifier
30352, 1999-025ABP
Orbit
SSO
Country
Flag of CNCN / PRC
Related business
Manufacturer
Unknown
Mission
Spacecraft
Bus & Motor
Unknown
Mass
Unknown
Launch date (UTC)
1999-05-10 (27 years ago)
Launch vehicle
Unknown
Launch site
Taiyaun Space Center, China (TSC)
Object type
Payload
Rocket body
Debris
Shape & HBR
Unknown shape, 0.1 m
Radar Cross Section
Medium (>0.1 m² and <1 m²)

Expand to show TLE details & history
Last TLE update: 10 hours ago

TLE from 10 hours ago
0 FENGYUN 1C DEB
1 30352U 99025ABP 26166.01124948  .00000288  00000-0  19474-3 0  9994
2 30352  98.7482 186.5022 0029089 156.1153 269.8612 14.07713312995036
Epoch: 2026-06-15T00:16Z
TLE epoch observation values (Epoch: 2026-06-15T00:16:11.955Z)
Latitude
64.29983°
Longitude
-99.39702°
Altitude
878.362 km
Speed
7.419 km/s
True Right ascension
11h 11m 49s
True Declination
64° 10' 03"
Sunlit
Object was in daylight at epoch
Visualization orbit readout
Latitude
Unknown
Longitude
Unknown
Altitude
Unknown
Speed
Unknown
Apparent Right ascension
Unknown
Apparent Declination
Unknown
Sunlit
N/A
Visualization observer readout
Local Sidereal Time
20:31:08
Azimuth
Unknown
Elevation
Unknown
Doppler factor
Unknown
Orbital elements
Apogee altitude
885.452 km
Perigee altitude
843.316 km
Semi-major axis
7,242.521 km
Eccentricity
0.00291
Inclination
98.7482°
RAAN
186.5022°
Arg. of periapsis
156.1153°
True anomaly
269.52787°
Mean anomaly
269.8612°
Eccentric anomaly
269.69453°
Mean motion
3.52134 °/min
Orbital period
102.23 mins
BSTAR
0.00019474
Loading maneuver chart data...
Computing Atmospheric mass density...

Documentation

Showing up to 5 results
|